Regional Weather Roundup
Issued by NWS

Home | Current Version | Previous Version | Text Only | Print | Product List | Glossary Off
Versions: 1 2 3 4 5 6 7 8 9 10 11 12 13 14 15 16 17 18 19 20 21 22 23 24 25 26 27 28 29 30 31 32 33 34 35 36 37 38 39 40 41 42 43 44 45 46 47 48 49 50

000
ASUS43 KLOT 300200
RWRIL

ILLINOIS REGIONAL WEATHER ROUNDUP
NATIONAL WEATHER SERVICE CHICAGO/ROMEOVILLE IL
900 PM CDT TUE JUL 29 2014

NOTE: "FAIR" INDICATES FEW OR NO CLOUDS BELOW 12,000 FEET WITH NO
SIGNIFICANT WEATHER AND/OR OBSTRUCTIONS TO VISIBILITY.

* THESE STATIONS ARE NOT UNDER NWS QUALITY CONTROL. THEY ALSO MAY NOT
  REPORT WEATHER SUCH AS PRECIPITATION OR FOG.

ILZ001-002-007-009-015-016-024-300300-
NORTHWEST ILLINOIS

CITY           SKY/WX    TMP DP  RH WIND       PRES   REMARKS
MOLINE         CLEAR     67  58  72 SW5       30.04R
STERLING*      PTCLDY    70  57  64 W7        30.03S
$$

ILZ003-004-008-010-011-017-018-300300-
NORTH CENTRAL ILLINOIS

CITY           SKY/WX    TMP DP  RH WIND       PRES   REMARKS
ROCKFORD       MOCLDY    70  54  56 NW12      30.03S
FREEPORT*      MOCLDY    64  57  77 N14G26    30.07R
$$

ILZ005-006-012>014-019>023-300300-
NORTHEAST ILLINOIS

CITY           SKY/WX    TMP DP  RH WIND       PRES   REMARKS
CHICAGO-OHARE  MOCLDY    72  56  57 W9        29.99S
CHICAGO-MIDWAY MOCLDY    72  58  61 W6        29.99S
AURORA         CLOUDY    67  61  81 SW5       30.01F
LANSING*       MOCLDY    62  56  80 SW3       30.01S
WAUKEGAN       PTCLDY    68  57  68 CALM      29.98S
DUPAGE AIRPORT CLOUDY    69  58  67 W5        30.00S
WHEELING       PTCLDY    74  56  53 W6        30.00S
NORTHERLY ISL    N/A     69  58  67 SE5         N/A
$$

LMZ740>746-300300-
SOUTHERN LAKE MICHIGAN

STATION/POSITION SKY/WX   TEMP    WIND        PRES    VSBY  WAVE
                          AIR SEA DIR/SP/G                  HT/PER
                          (F)     (DEG/KT/KT) (MB)    (MI)  (FT/S)
SOUTHERN BUOY              63 62  220/  6/  8 1015.0F         0
WAUKEGAN HARBOR            67     250/  4/  5   N/A
HARRISON CRIB              69     180/  6/ 10   N/A
BURNHAM HARBOR             70     180/  5/ 11   N/A
CALUMET HARBOR             70     150/  5/  7 1014.6R
MICHIGAN CITY              69     240/  3/  4   N/A
MICHIGAN CITY 6N           68 69   CALM  /  2   N/A           0
ST. JOSEPH                 68 68  180/  4/  6   N/A           1
$$

ILZ025>027-034>036-040-047-049-050-058-095>099-300300-
WEST-CENTRAL ILLINOIS

CITY           SKY/WX    TMP DP  RH WIND       PRES   REMARKS
QUINCY         CLEAR     68  59  73 CALM      30.06F
GALESBURG*     CLEAR     67  59  76 CALM      30.05S
$$

ILZ028>032-037-038-041>044-048-051>054-059>061-300300-
CENTRAL ILLINOIS

CITY           SKY/WX    TMP DP  RH WIND       PRES   REMARKS
DECATUR        CLEAR     71  57  61 W6        30.06S
PEORIA         CLEAR     70  58  65 CALM      30.05S
SPRINGFIELD    CLEAR     66  61  84 SW3       30.06S
TAYLORVILLE    NOT AVBL
$$

ILZ033-039-045-046-055>057-062-063-300300-
EAST-CENTRAL ILLINOIS

CITY           SKY/WX    TMP DP  RH WIND       PRES   REMARKS
CHAMPAIGN      CLEAR     63  59  87 W7        30.05S
MATTOON        CLEAR     67  55  65 W3        30.06R
$$

ILZ079-100>102-300300-
SOUTHWEST ILLINOIS

CITY           SKY/WX    TMP DP  RH WIND       PRES   REMARKS
ALTON          CLEAR     68  61  77 NW7       30.07S
CAHOKIA*       CLEAR     69  56  62 N3        30.06S
$$

ILZ064>066-069>071-074>076-080>082-084>086-088>090-092>094-300300-
SOUTH-CENTRAL ILLINOIS

CITY           SKY/WX    TMP DP  RH WIND       PRES   REMARKS
CARBONDALE     CLEAR     65  59  81 CALM      30.06F
MT. VERNON     CLEAR     63  55  77 CALM      30.08R
$$

ILZ067-068-072-073-078-083-087-091-300300-
SOUTHEAST ILLINOIS

CITY           SKY/WX    TMP DP  RH WIND       PRES   REMARKS
LAWRENCEVILLE  CLEAR     67  61  81 CALM      30.06R
HARRISBURG*    CLEAR     64  61  90 CALM      30.08R
$$

ABBREVIATIONS USED IN REMARKS
   TC - TEMPERATURE IN CELSIUS
  WCI - WIND CHILL INDEX
   HX - HEAT INDEX
  VSB - VISIBILITY
$$




USA.gov is the U.S. government's official web portal to all federal, state and local government web resources and services.